TimeIST,TemperatureF,Dew PointF,Humidity,Sea Level PressureIn,VisibilityMPH,Wind Direction,Wind SpeedMPH,Gust SpeedMPH,PrecipitationIn,Events,Conditions,WindDirDegrees,DateUTC
12:00 AM,75.2,71.6,89,29.86,2.2,Calm,Calm,-,N/A,,Mist,0,2012-10-06 18:30:00
12:30 AM,73.4,71.6,94,29.86,2.2,Calm,Calm,-,N/A,,Mist,0,2012-10-06 19:00:00
1:00 AM,73.4,71.6,94,29.86,2.2,Calm,Calm,-,N/A,,Mist,0,2012-10-06 19:30:00
1:30 AM,73.4,71.6,94,29.86,2.2,Calm,Calm,-,N/A,,Mist,0,2012-10-06 20:00:00
2:00 AM,73.4,71.6,94,29.86,2.2,Calm,Calm,-,N/A,,Mist,0,2012-10-06 20:30:00
2:30 AM,73.4,71.6,94,29.86,2.2,Calm,Calm,-,N/A,,Mist,0,2012-10-06 21:00:00
4:00 AM,69.8,69.8,100,29.86,2.2,Calm,Calm,-,N/A,,Mist,0,2012-10-06 22:30:00
4:30 AM,68.0,68.0,100,29.86,2.2,Calm,Calm,-,N/A,,Mist,0,2012-10-06 23:00:00
5:00 AM,68.0,68.0,100,29.86,1.9,Calm,Calm,-,N/A,,Mist,0,2012-10-06 23:30:00
5:30 AM,67,67,100,29.86,1,Calm,Calm,,,,Mist,,2012-10-07 00:00:00
6:00 AM,68.0,68.0,100,29.89,1.6,Calm,Calm,-,N/A,,Mist,0,2012-10-07 00:30:00
6:30 AM,68.0,68.0,100,29.89,1.6,Calm,Calm,-,N/A,,Mist,0,2012-10-07 01:00:00
7:30 AM,68.0,68.0,100,29.89,1.6,Calm,Calm,-,N/A,,Mist,0,2012-10-07 02:00:00
8:00 AM,69.8,69.8,100,29.89,1.6,Calm,Calm,-,N/A,,Mist,0,2012-10-07 02:30:00
8:30 AM,72,69,88,29.89,1,Calm,Calm,,,,Mist,,2012-10-07 03:00:00
11:00 AM,82.4,64.4,54,29.95,3.1,West,5.8,-,N/A,,Haze,270,2012-10-07 05:30:00
11:30 AM,85,67,46,29.91,2,West,4.6,,,,,270,2012-10-07 06:00:00
11:30 AM,84.2,68.0,58,29.95,3.7,West,4.6,-,N/A,,Unknown,270,2012-10-07 06:00:00
1:00 PM,89.6,66.2,46,29.92,3.7,NW,8.1,-,N/A,,Unknown,320,2012-10-07 07:30:00
2:00 PM,91.4,66.2,43,29.89,3.7,WNW,8.1,-,N/A,,Unknown,290,2012-10-07 08:30:00
2:30 PM,92,66,33,29.84,2,WNW,6.9,,,,,290,2012-10-07 09:00:00
3:30 PM,91.4,66.2,43,29.89,3.7,WNW,6.9,-,N/A,,Unknown,290,2012-10-07 10:00:00
4:30 PM,91.4,68.0,46,29.86,3.7,West,5.8,-,N/A,,Unknown,270,2012-10-07 11:00:00
5:00 PM,89.6,66.2,46,29.86,3.7,West,5.8,-,N/A,,Unknown,270,2012-10-07 11:30:00
7:00 PM,80.6,71.6,74,29.89,2.5,Calm,Calm,-,N/A,,Haze,0,2012-10-07 13:30:00
8:30 PM,78,71,73,29.86,1,Calm,Calm,,,,Haze,,2012-10-07 15:00:00
8:30 PM,78.8,71.6,78,29.89,2.5,Calm,Calm,-,N/A,,Haze,0,2012-10-07 15:00:00
9:00 PM,78.8,71.6,78,29.89,2.5,Calm,Calm,-,N/A,,Haze,0,2012-10-07 15:30:00
10:30 PM,77.0,71.6,83,29.89,2.5,Calm,Calm,-,N/A,,Mist,0,2012-10-07 17:00:00
11:30 PM,76,72,84,29.86,1,Calm,Calm,,,,Mist,,2012-10-07 18:00:00